Jefferson, NC

6:02 AM EDT on October 15, 2019 (GMT -0400)
Ashe County

Weather History for KGEV - September, 2019

Change the Weather History Date:

Monday, September 23, 2019

  Actual Average Record
Temperature  
Mean Temperature 68 °F -  
Max Temperature 78 °F 70 °F 85 °F (1970)
Min Temperature 57 °F 47 °F 28 °F (1983)
Cooling Degree Days 2    
Growing Degree Days 18 (Base 50)    
Moisture  
Dew Point 56 °F    
Average Humidity 66    
Maximum Humidity 90    
Minimum Humidity 46    
Precipitation  
Precipitation 0.01 in - - ()
Sea Level Pressure  
Sea Level Pressure 30.15 in    
Wind  
Wind Speed 7 mph ()    
Max Wind Speed 17 mph    
Max Gust Speed 26 mph    
Visibility 10.0 miles    
Events      
Averages and records for this station are not official NWS values.
T = Trace of Precipitation, MM = Missing Value Source: Averaged Metar Reports

Daily Weather History Graph

Daily Weather History Graph

Search for Another Location

Airport or City:

Astronomy

Sep. 23, 2019 Rise Set
Actual Time 7:14 AM EDT 7:21 PM EDT
Civil Twilight 6:48 AM EDT 7:47 PM EDT
Nautical Twilight 6:18 AM EDT 8:17 PM EDT
Astronomical Twilight 5:47 AM EDT 8:47 PM EDT
Moon 1:06 AM EDT (9/23) 4:03 PM EDT (9/23)
Length of Visible Light 12h 58m
Length of Day
12h 07m
Waning Crescent, 33% of the Moon is Illuminated
Sep 23
Waning Crescent
Sep 28
New
Oct 5
First Quarter
Oct 13
Full
Oct 21
Last Quarter

Hourly Weather History & Observations

Time (EDT) Temp. Dew Point Humidity Pressure Visibility Wind Dir Wind Speed Gust Speed Precip Events Conditions
12:15 AM 66.7 °F 55.4 °F 67% 30.23 in 10.0 mi WSW 5.8 mph - N/A   Clear
12:35 AM 66.9 °F 55.4 °F 66% 30.22 in 10.0 mi WSW 4.6 mph - N/A   Clear
12:55 AM 67.1 °F 55.4 °F 66% 30.22 in 10.0 mi WSW 4.6 mph - N/A   Clear
1:15 AM 66.7 °F 55.4 °F 67% 30.21 in 10.0 mi WSW 3.5 mph - N/A   Clear
1:35 AM 64.6 °F 55.2 °F 72% 30.21 in 10.0 mi Calm Calm - N/A   Clear
1:55 AM 64.9 °F 55.4 °F 71% 30.21 in 10.0 mi WSW 3.5 mph - N/A   Clear
2:15 AM 63.5 °F 55.4 °F 75% 30.21 in 10.0 mi WSW 5.8 mph - N/A   Clear
2:35 AM 64.8 °F 54.9 °F 70% 30.21 in 10.0 mi WSW 4.6 mph - N/A   Clear
2:55 AM 61.7 °F 55.4 °F 80% 30.20 in 10.0 mi Calm Calm - N/A   Clear
3:15 AM 59.2 °F 55.4 °F 87% 30.20 in 10.0 mi WSW 3.5 mph - N/A   Clear
3:35 AM 59.9 °F 55.2 °F 84% 30.20 in 10.0 mi Calm Calm - N/A   Clear
3:55 AM 58.5 °F 54.7 °F 87% 30.20 in 10.0 mi Calm Calm - N/A   Clear
4:15 AM 59.5 °F 54.5 °F 83% 30.19 in 10.0 mi Calm Calm - N/A   Clear
4:35 AM 57.7 °F 54.7 °F 90% 30.19 in 10.0 mi WSW 3.5 mph - N/A   Clear
4:55 AM 61.2 °F 54.1 °F 78% 30.19 in 10.0 mi WSW 5.8 mph - N/A   Clear
5:15 AM 61.7 °F 54.5 °F 77% 30.19 in 10.0 mi WSW 5.8 mph - N/A   Clear
5:35 AM 64.9 °F 54.5 °F 69% 30.18 in 10.0 mi WSW 4.6 mph - N/A   Clear
5:55 AM 59.9 °F 54.0 °F 81% 30.18 in 10.0 mi WSW 5.8 mph - N/A   Clear
6:15 AM 57.6 °F 53.8 °F 87% 30.19 in 10.0 mi Calm Calm - N/A   Clear
6:35 AM 60.1 °F 54.0 °F 80% 30.19 in 10.0 mi WSW 8.1 mph - N/A   Clear
6:55 AM 61.7 °F 54.1 °F 76% 30.19 in 10.0 mi WSW 8.1 mph - N/A   Clear
7:15 AM 63.5 °F 54.5 °F 72% 30.19 in 10.0 mi WSW 9.2 mph - N/A   Clear
7:35 AM 64.4 °F 54.5 °F 70% 30.19 in 10.0 mi WSW 9.2 mph - N/A   Clear
7:55 AM 65.1 °F 54.3 °F 68% 30.19 in 10.0 mi WSW 15.0 mph 23.0 mph N/A   Clear
8:15 AM 65.7 °F 54.1 °F 66% 30.20 in 10.0 mi WSW 13.8 mph - N/A   Clear
8:35 AM 66.2 °F 53.8 °F 64% 30.19 in 10.0 mi WSW 15.0 mph - N/A   Clear
8:55 AM 66.9 °F 53.6 °F 62% 30.19 in 10.0 mi WSW 15.0 mph 26.5 mph N/A   Clear
9:15 AM 67.5 °F 53.2 °F 60% 30.19 in 10.0 mi WNW 9.2 mph 20.7 mph N/A   Clear
9:35 AM 68.0 °F 53.1 °F 59% 30.19 in 10.0 mi WNW 8.1 mph 18.4 mph N/A   Clear
9:55 AM 69.1 °F 52.9 °F 56% 30.19 in 10.0 mi WNW 17.3 mph 20.7 mph N/A   Clear
10:15 AM 69.3 °F 52.7 °F 56% 30.19 in 10.0 mi West 16.1 mph 23.0 mph N/A   Clear
10:35 AM 70.3 °F 52.9 °F 54% 30.19 in 10.0 mi West 13.8 mph 21.9 mph N/A   Clear
10:55 AM 70.7 °F 53.2 °F 54% 30.19 in 10.0 mi West 12.7 mph 17.3 mph 0.01 in   Clear
11:15 AM 71.8 °F 53.6 °F 53% 30.20 in 10.0 mi West 6.9 mph - N/A   Clear
11:35 AM 72.7 °F 53.6 °F 51% 30.19 in 10.0 mi West 17.3 mph 21.9 mph N/A   Clear
11:55 AM 72.7 °F 53.6 °F 51% 30.18 in 10.0 mi West 11.5 mph 23.0 mph N/A   Clear
12:15 PM 73.2 °F 54.0 °F 51% 30.17 in 10.0 mi West 15.0 mph 21.9 mph N/A   Clear
12:35 PM 73.9 °F 54.7 °F 51% 30.17 in 10.0 mi West 13.8 mph 19.6 mph N/A   Clear
12:55 PM 74.7 °F 55.2 °F 51% 30.16 in 10.0 mi WSW 10.4 mph 18.4 mph N/A   Clear
1:15 PM 74.7 °F 55.6 °F 51% 30.15 in 10.0 mi West 11.5 mph 16.1 mph N/A   Clear
1:35 PM 75.2 °F 55.4 °F 50% 30.14 in 10.0 mi WSW 3.5 mph 18.4 mph N/A   Clear
1:55 PM 76.1 °F 55.2 °F 48% 30.13 in 10.0 mi West 9.2 mph - N/A   Clear
2:15 PM 76.6 °F 54.9 °F 47% 30.12 in 10.0 mi WSW 9.2 mph - N/A   Clear
2:35 PM 77.4 °F 55.0 °F 46% 30.11 in 10.0 mi WNW 9.2 mph 16.1 mph N/A   Clear
2:55 PM 78.1 °F 55.8 °F 46% 30.11 in 10.0 mi West 10.4 mph 16.1 mph N/A   Clear
3:15 PM 76.6 °F 55.8 °F 48% 30.10 in 10.0 mi WNW 8.1 mph 16.1 mph N/A   Clear
3:35 PM 77.7 °F 56.1 °F 47% 30.11 in 10.0 mi West 9.2 mph - N/A   Clear
3:55 PM 77.7 °F 56.1 °F 47% 30.10 in 10.0 mi West 11.5 mph 18.4 mph N/A   Clear
4:15 PM 77.5 °F 56.7 °F 48% 30.09 in 10.0 mi West 12.7 mph 16.1 mph N/A   Clear
4:55 PM 75.4 °F 56.3 °F 51% 30.09 in 10.0 mi West 8.1 mph 16.1 mph N/A   Mostly Cloudy
5:15 PM 75.2 °F 56.8 °F 53% 30.09 in 10.0 mi West 5.8 mph - N/A   Overcast
5:35 PM 75.0 °F 56.8 °F 53% 30.09 in 10.0 mi West 8.1 mph - N/A   Overcast
5:55 PM 74.7 °F 57.2 °F 54% 30.09 in 10.0 mi West 9.2 mph - N/A   Overcast
6:15 PM 73.8 °F 56.7 °F 55% 30.09 in 10.0 mi West 10.4 mph - N/A   Overcast
6:35 PM 73.0 °F 56.8 °F 57% 30.09 in 10.0 mi West 12.7 mph 18.4 mph N/A   Overcast
6:55 PM 72.3 °F 56.8 °F 58% 30.10 in 10.0 mi West 6.9 mph - N/A   Overcast
7:15 PM 69.4 °F 58.1 °F 67% 30.09 in 10.0 mi Calm Calm - N/A   Overcast
7:35 PM 69.8 °F 57.7 °F 65% 30.09 in 10.0 mi North 3.5 mph - N/A   Overcast
7:55 PM 69.8 °F 57.2 °F 64% 30.09 in 10.0 mi West 10.4 mph 16.1 mph N/A   Overcast
8:15 PM 68.7 °F 57.4 °F 67% 30.09 in 10.0 mi West 8.1 mph - N/A   Mostly Cloudy
8:35 PM 68.2 °F 57.4 °F 68% 30.09 in 10.0 mi WSW 4.6 mph - N/A   Overcast
8:55 PM 68.0 °F 58.1 °F 71% 30.09 in 10.0 mi West 9.2 mph 17.3 mph N/A   Scattered Clouds
9:15 PM 67.6 °F 58.6 °F 73% 30.09 in 10.0 mi West 11.5 mph 17.3 mph N/A   Scattered Clouds
9:35 PM 67.3 °F 59.0 °F 75% 30.09 in 10.0 mi West 11.5 mph - N/A   Overcast
9:55 PM 66.7 °F 59.9 °F 79% 30.09 in 10.0 mi West 12.7 mph 18.4 mph N/A   Overcast
10:15 PM 66.2 °F 60.3 °F 81% 30.08 in 10.0 mi West 8.1 mph 18.4 mph N/A   Overcast
10:35 PM 65.7 °F 60.8 °F 84% 30.08 in 10.0 mi West 11.5 mph 18.4 mph N/A   Mostly Cloudy
10:55 PM 65.8 °F 60.8 °F 84% 30.08 in 10.0 mi West 11.5 mph 17.3 mph N/A   Mostly Cloudy
11:15 PM 65.7 °F 60.8 °F 84% 30.08 in 10.0 mi West 9.2 mph - N/A   Scattered Clouds
11:35 PM 65.8 °F 61.0 °F 84% 30.08 in 10.0 mi West 8.1 mph - N/A   Mostly Cloudy
11:55 PM 65.7 °F 61.0 °F 85% 30.08 in 10.0 mi West 8.1 mph 19.6 mph N/A   Overcast